Temp
-23 -24 -24 -24 -24 -24 -24 -24 -24 -25 -25 -25 -25 -25 -25 -25 -25 -24 -24 -23 -23 -22 -22 -21 -21 -20 -20 -19 -18 -17 -17 -15 -15 -14 -14 -13 -13 -13 -13 -12 -13 -11 -10 -10 -11 -9 -9 -9 -9 -9 -9 -9 -10 -9
-24 -24 -24 -24 -25 -24 -24 -25 -25 -25 -26 -26 -26 -26 -26 -25 -25 -24 -24 -23 -23 -23 -23 -22 -21 -21 -20 -20 -19 -18 -17 -16 -16 -15 -14 -14 -14 -14 -14 -13 -12 -12 -11 -11 -11 -10 -10 -9 -9 -9 -9 -10 -10 -10
-24 -24 -25 -25 -25 -25 -25 -25 -25 -26 -26 -27 -27 -26 -26 -25 -25 -25 -24 -23 -23 -23 -23 -22 -22 -21 -21 -20 -19 -18 -16 -16 -15 -15 -15 -14 -14 -14 -13 -13 -13 -13 -12 -11 -11 -10 -10 -10 -10 -10 -10 -10 -9 -10
-24 -25 -25 -25 -25 -25 -25 -26 -26 -26 -26 -27 -26 -26 -26 -25 -25 -24 -24 -24 -23 -23 -23 -22 -22 -22 -21 -20 -20 -19 -18 -17 -16 -15 -15 -15 -15 -14 -14 -13 -13 -13 -13 -12 -11 -11 -11 -10 -10 -10 -10 -10 -10 -11
-26 -25 -25 -25 -25 -26 -26 -26 -26 -26 -26 -26 -26 -26 -26 -25 -25 -24 -24 -23 -23 -23 -22 -22 -22 -21 -21 -21 -21 -19 -18 -17 -16 -16 -15 -15 -15 -15 -14 -14 -13 -13 -12 -12 -11 -11 -11 -11 -11 -11 -11 -11 -11 -11
-27 -26 -26 -25 -26 -26 -26 -26 -26 -26 -26 -26 -26 -26 -26 -25 -25 -24 -24 -23 -23 -23 -22 -22 -22 -21 -20 -20 -20 -20 -18 -17 -16 -16 -15 -15 -15 -15 -14 -14 -13 -13 -13 -13 -12 -11 -11 -11 -11 -11 -11 -11 -11 -10
-27 -26 -26 -26 -26 -26 -26 -25 -25 -26 -26 -26 -26 -26 -25 -25 -24 -24 -23 -24 -23 -23 -22 -22 -21 -21 -20 -20 -20 -19 -19 -18 -18 -16 -16 -15 -15 -14 -13 -13 -13 -13 -12 -12 -13 -12 -12 -13 -13 -12 -12 -11 -12 -11
-27 -26 -26 -26 -26 -26 -26 -25 -25 -25 -25 -25 -26 -25 -25 -25 -24 -23 -24 -23 -23 -23 -22 -21 -21 -20 -20 -19 -19 -19 -18 -18 -17 -17 -16 -15 -15 -14 -15 -14 -13 -13 -13 -13 -13 -12 -12 -12 -12 -12 -13 -12 -12 -12
-27 -26 -26 -26 -26 -26 -25 -25 -25 -25 -25 -25 -25 -25 -24 -24 -24 -24 -23 -23 -23 -22 -22 -21 -21 -20 -20 -19 -19 -19 -18 -18 -17 -17 -16 -15 -15 -14 -14 -14 -14 -13 -14 -14 -13 -13 -13 -13 -13 -13 -13 -13 -13 -12
-26 -26 -26 -26 -26 -26 -26 -25 -25 -25 -25 -25 -25 -24 -24 -24 -24 -24 -23 -23 -23 -23 -22 -22 -21 -21 -20 -21 -20 -19 -19 -17 -17 -17 -16 -16 -16 -15 -14 -14 -14 -15 -14 -14 -14 -14 -14 -14 -14 -13 -13 -13 -13 -13
-25 -25 -25 -25 -25 -25 -25 -25 -25 -25 -25 -25 -24 -24 -24 -24 -24 -23 -24 -23 -23 -22 -22 -21 -21 -21 -21 -20 -20 -19 -19 -18 -17 -17 -17 -17 -16 -16 -16 -15 -14 -14 -15 -15 -15 -14 -14 -14 -14 -14 -13 -13 -13 -13
-25 -25 -25 -25 -25 -25 -25 -25 -25 -25 -25 -24 -24 -24 -24 -24 -23 -23 -23 -23 -23 -22 -22 -22 -22 -21 -21 -21 -21 -20 -19 -19 -18 -18 -18 -17 -17 -17 -17 -16 -16 -16 -15 -15 -15 -15 -14 -14 -13 -13 -13 -13 -13 -13
-25 -25 -25 -25 -25 -25 -25 -25 -25 -25 -25 -24 -24 -24 -23 -23 -23 -23 -23 -23 -22 -22 -22 -22 -22 -21 -21 -21 -21 -21 -20 -19 -19 -18 -17 -17 -17 -17 -17 -16 -16 -16 -16 -15 -15 -14 -14 -14 -14 -14 -14 -14 -14 -14
-25 -25 -25 -25 -25 -25 -25 -25 -25 -25 -25 -25 -24 -24 -23 -23 -23 -22 -22 -22 -22 -22 -22 -22 -22 -21 -21 -21 -20 -20 -20 -19 -18 -18 -17 -17 -17 -17 -17 -17 -17 -16 -16 -15 -15 -15 -15 -15 -15 -15 -14 -14 -14 -14
-25 -25 -25 -25 -25 -25 -25 -25 -25 -25 -25 -24 -23 -22 -22 -22 -22 -22 -22 -22 -22 -21 -21 -21 -21 -21 -21 -20 -20 -20 -19 -19 -18 -18 -18 -18 -18 -18 -17 -17 -18 -17 -17 -16 -16 -15 -15 -15 -15 -14 -14 -14 -14 -13
-25 -25 -25 -25 -25 -25 -24 -24 -24 -24 -24 -23 -23 -23 -22 -22 -22 -22 -22 -22 -21 -21 -21 -21 -21 -21 -21 -20 -20 -19 -19 -18 -18 -18 -18 -18 -18 -18 -18 -17 -17 -17 -16 -16 -16 -15 -15 -15 -14 -14 -14 -14 -14 -14
-24 -25 -24 -24 -24 -24 -24 -24 -24 -24 -24 -23 -23 -23 -22 -22 -22 -22 -21 -21 -21 -21 -21 -21 -21 -21 -21 -21 -20 -20 -19 -19 -19 -19 -19 -19 -19 -18 -18 -17 -17 -17 -17 -16 -16 -16 -15 -15 -15 -15 -14 -14 -14 -15
-24 -24 -24 -23 -23 -24 -23 -23 -23 -23 -23 -23 -23 -22 -22 -22 -22 -22 -22 -22 -22 -21 -21 -21 -21 -21 -20 -20 -21 -20 -20 -19 -19 -19 -19 -19 -19 -18 -18 -17 -17 -17 -17 -17 -17 -16 -16 -15 -15 -16 -16 -16 -16 -16
-23 -23 -23 -23 -23 -23 -23 -23 -23 -23 -22 -22 -22 -22 -21 -21 -22 -22 -22 -22 -21 -21 -21 -21 -20 -20 -19 -19 -19 -19 -19 -19 -19 -19 -19 -19 -18 -18 -17 -17 -17 -17 -17 -17 -16 -17 -17 -16 -16 -16 -16 -16 -16 -15
-23 -23 -23 -23 -22 -22 -22 -22 -22 -22 -22 -22 -21 -21 -21 -21 -21 -21 -20 -20 -20 -20 -20 -20 -19 -19 -19 -19 -19 -19 -19 -19 -19 -19 -19 -18 -18 -18 -18 -18 -17 -17 -17 -17 -17 -17 -17 -16 -16 -16 -16 -16 -16 -15
-22 -22 -22 -22 -22 -22 -22 -22 -22 -22 -22 -21 -21 -21 -21 -20 -20 -20 -20 -20 -20 -20 -20 -19 -19 -19 -19 -19 -19 -19 -19 -19 -18 -18 -18 -18 -18 -18 -18 -18 -18 -18 -17 -17 -17 -17 -17 -17 -16 -16 -16 -17 -17 -17
-21 -21 -22 -22 -21 -21 -21 -21 -21 -21 -21 -21 -21 -20 -20 -20 -20 -20 -20 -20 -20 -20 -19 -19 -19 -19 -19 -19 -19 -19 -19 -19 -19 -18 -18 -18 -18 -18 -18 -18 -18 -18 -18 -18 -18 -18 -17 -17 -17 -17 -17 -17 -17 -17
-20 -20 -20 -20 -20 -20 -20 -20 -20 -20 -20 -20 -20 -20 -20 -20 -20 -20 -20 -20 -19 -19 -19 -19 -19 -19 -19 -19 -19 -19 -19 -19 -19 -19 -19 -18 -18 -19 -18 -18 -18 -18 -18 -18 -18 -18 -18 -17 -17 -17 -17 -18 -18 -18
-19 -19 -20 -20 -20 -20 -20 -20 -20 -20 -20 -20 -20 -20 -20 -20 -20 -19 -19 -19 -19 -19 -19 -19 -19 -19 -19 -19 -19 -19 -19 -19 -19 -19 -18 -18 -18 -18 -18 -18 -18 -18 -18 -18 -18 -18 -18 -18 -18 -18 -18 -18 -18 -18
-19 -19 -19 -19 -19 -20 -20 -20 -20 -19 -20 -19 -20 -20 -20 -20 -20 -20 -20 -20 -20 -19 -19 -19 -19 -19 -19 -19 -19 -19 -19 -19 -19 -19 -19 -19 -19 -19 -18 -18 -18 -18 -18 -18 -18 -18 -18 -18 -18 -18 -18 -17 -17 -17
-19 -19 -19 -20 -20 -19 -20 -20 -20 -20 -20 -20 -20 -20 -20 -20 -20 -20 -20 -20 -20 -20 -20 -19 -19 -19 -19 -19 -19 -19 -19 -19 -19 -19 -19 -19 -19 -19 -18 -18 -18 -18 -18 -18 -18 -18 -18 -18 -18 -18 -18 -18 -17 -17
-19 -19 -19 -19 -19 -20 -20 -20 -19 -20 -20 -20 -20 -20 -20 -19 -19 -19 -19 -20 -20 -20 -20 -19 -19 -19 -19 -19 -19 -19 -19 -19 -19 -19 -19 -19 -19 -18 -18 -18 -18 -18 -18 -18 -18 -18 -18 -18 -18 -18 -18 -18 -18 -18
-19 -19 -19 -19 -19 -19 -19 -19 -19 -19 -20 -20 -19 -20 -19 -19 -19 -19 -19 -19 -19 -19 -19 -19 -19 -19 -18 -18 -18 -18 -18 -18 -18 -18 -18 -18 -18 -18 -18 -18 -18 -18 -18 -18 -18 -18 -18 -18 -18 -18 -18 -18 -18 -18
-19 -19 -19 -19 -19 -19 -19 -19 -19 -19 -20 -20 -19 -19 -19 -19 -19 -19 -19 -19 -19 -18 -18 -18 -19 -19 -19 -19 -18 -18 -19 -19 -19 -19 -19 -19 -19 -19 -19 -19 -19 -19 -19 -19 -19 -19 -19 -19 -19 -19 -19 -19 -19 -19
-19 -19 -19 -19 -19 -19 -19 -19 -19 -19 -19 -19 -19 -19 -19 -19 -19 -19 -19 -19 -18 -19 -18 -18 -19 -19 -19 -19 -19 -19 -19 -19 -19 -19 -19 -19 -19 -20 -20 -20 -20 -20 -20 -20 -20 -20 -20 -20 -20 -20 -20 -20 -20 -20
-19 -19 -19 -19 -19 -19 -19 -19 -19 -20 -19 -19 -19 -19 -19 -19 -19 -19 -19 -19 -19 -19 -19 -19 -19 -20 -20 -20 -19 -19 -20 -20 -20 -20 -20 -20 -20 -20 -20 -20 -20 -20 -20 -20 -20 -20 -20 -20 -21 -21 -21 -21 -21 -21
-19 -19 -19 -19 -19 -19 -19 -19 -19 -19 -19 -19 -19 -19 -19 -19 -19 -19 -19 -19 -19 -19 -19 -20 -20 -20 -20 -20 -20 -20 -20 -20 -20 -20 -20 -21 -21 -21 -21 -21 -21 -21 -21 -21 -21 -21 -21 -21 -21 -21 -21 -21 -22 -22
-19 -19 -19 -19 -19 -19 -19 -19 -19 -19 -19 -19 -19 -19 -19 -19 -20 -20 -20 -20 -20 -20 -20 -20 -20 -20 -20 -20 -20 -20 -20 -20 -20 -20 -21 -21 -21 -21 -21 -21 -21 -21 -21 -22 -22 -22 -22 -23 -23 -23 -23 -24 -24 -24
Height
5553 5546 5539 5532 5527 5522 5517 5514 5511 5509 5508 5506 5505 5506 5509 5512 5516 5521 5528 5535 5542 5549 5555 5558 5565 5575 5582 5593 5606 5616 5626 5634 5643 5650 5658 5665 5672 5677 5684 5692 5699 5704 5711 5715 5724 5733 5741 5749 5755 5761 5765 5768 5777 5783
5543 5535 5529 5523 5519 5514 5509 5506 5504 5502 5499 5497 5496 5498 5501 5506 5510 5516 5521 5528 5534 5541 5547 5551 5561 5569 5576 5586 5598 5608 5619 5627 5636 5642 5650 5658 5665 5671 5677 5680 5686 5693 5702 5712 5719 5727 5735 5741 5747 5752 5759 5764 5768 5773
5532 5525 5519 5516 5512 5507 5503 5500 5498 5495 5494 5492 5492 5494 5497 5501 5506 5511 5516 5522 5529 5536 5541 5549 5556 5565 5571 5580 5590 5603 5611 5621 5631 5636 5644 5651 5658 5667 5672 5679 5684 5686 5697 5701 5713 5720 5727 5734 5740 5746 5750 5755 5760 5764
5522 5517 5511 5508 5504 5501 5497 5495 5493 5491 5489 5489 5490 5492 5495 5499 5504 5509 5513 5520 5527 5533 5539 5547 5554 5562 5568 5576 5584 5593 5603 5614 5619 5629 5637 5646 5654 5661 5668 5674 5680 5684 5690 5696 5705 5710 5721 5726 5733 5738 5742 5746 5748 5753
5512 5508 5505 5501 5498 5495 5492 5491 5489 5488 5487 5488 5489 5491 5494 5498 5503 5508 5513 5519 5524 5533 5538 5545 5552 5560 5568 5575 5582 5591 5600 5605 5618 5626 5633 5640 5647 5656 5664 5671 5676 5682 5687 5691 5704 5708 5711 5715 5720 5725 5728 5732 5737 5742
5501 5500 5498 5496 5494 5492 5490 5488 5487 5487 5487 5487 5489 5491 5495 5499 5504 5508 5514 5518 5525 5531 5538 5545 5552 5559 5567 5573 5580 5588 5597 5606 5614 5621 5630 5636 5639 5648 5658 5664 5669 5676 5681 5685 5692 5698 5702 5705 5709 5712 5719 5723 5730 5734
5491 5492 5493 5491 5490 5490 5488 5487 5487 5487 5487 5488 5491 5493 5497 5501 5505 5510 5516 5520 5526 5533 5539 5546 5553 5560 5566 5572 5579 5587 5596 5604 5611 5617 5626 5632 5637 5643 5652 5656 5663 5670 5675 5680 5685 5691 5696 5700 5703 5706 5711 5717 5723 5726
5488 5488 5489 5489 5489 5489 5488 5488 5488 5489 5490 5491 5493 5496 5499 5502 5507 5512 5517 5523 5530 5536 5542 5549 5556 5563 5567 5572 5579 5586 5594 5602 5609 5615 5621 5628 5632 5640 5646 5654 5659 5663 5669 5674 5679 5684 5689 5690 5694 5700 5706 5709 5712 5716
5488 5488 5489 5489 5490 5490 5490 5490 5490 5491 5493 5494 5497 5499 5502 5505 5509 5514 5521 5528 5534 5542 5546 5553 5559 5565 5569 5574 5579 5585 5591 5599 5607 5613 5621 5627 5632 5641 5641 5650 5656 5660 5665 5669 5674 5677 5682 5684 5690 5693 5698 5703 5705 5708
5491 5491 5491 5492 5491 5492 5492 5493 5493 5495 5497 5499 5501 5503 5505 5509 5514 5520 5526 5531 5538 5544 5550 5555 5561 5567 5573 5576 5581 5586 5591 5598 5605 5612 5618 5623 5628 5634 5639 5644 5649 5655 5662 5668 5673 5677 5681 5684 5687 5690 5692 5697 5698 5698
5498 5497 5496 5495 5495 5495 5496 5497 5498 5500 5501 5503 5505 5508 5512 5516 5521 5526 5531 5536 5541 5547 5552 5556 5560 5567 5573 5577 5582 5587 5591 5597 5602 5608 5614 5619 5625 5631 5637 5641 5646 5653 5659 5665 5670 5674 5677 5680 5682 5684 5686 5688 5689 5689
5505 5504 5502 5500 5500 5501 5502 5503 5504 5506 5507 5509 5511 5515 5519 5523 5528 5532 5535 5539 5544 5550 5554 5558 5563 5569 5573 5578 5582 5587 5592 5598 5602 5608 5612 5618 5624 5629 5635 5641 5646 5650 5655 5659 5663 5667 5670 5672 5674 5676 5678 5680 5679 5679
5513 5511 5510 5509 5509 5509 5509 5509 5511 5512 5514 5517 5520 5523 5526 5531 5534 5537 5541 5545 5548 5551 5557 5560 5565 5570 5576 5580 5583 5588 5591 5598 5604 5607 5610 5616 5623 5628 5633 5637 5642 5647 5650 5653 5657 5660 5662 5663 5665 5667 5668 5669 5669 5669
5521 5520 5519 5518 5518 5518 5518 5518 5519 5521 5523 5527 5530 5533 5536 5538 5540 5542 5545 5547 5550 5555 5561 5565 5568 5572 5577 5581 5584 5591 5594 5600 5604 5608 5613 5614 5621 5626 5630 5634 5638 5641 5644 5648 5651 5653 5654 5656 5657 5658 5659 5660 5660 5660
5529 5529 5529 5529 5528 5528 5528 5528 5529 5531 5534 5537 5539 5543 5546 5546 5547 5549 5550 5552 5556 5560 5563 5568 5572 5575 5578 5583 5587 5591 5597 5601 5604 5609 5613 5616 5620 5623 5626 5631 5634 5636 5639 5641 5642 5644 5645 5647 5648 5649 5650 5650 5649 5649
5539 5539 5539 5539 5539 5539 5538 5539 5540 5541 5544 5546 5548 5547 5549 5552 5554 5555 5556 5559 5561 5564 5568 5571 5574 5577 5581 5583 5589 5594 5600 5602 5606 5609 5611 5615 5618 5621 5624 5627 5630 5632 5635 5636 5637 5639 5639 5640 5641 5641 5641 5641 5640 5639
5551 5550 5550 5550 5549 5549 5548 5548 5549 5550 5553 5554 5555 5556 5557 5559 5560 5562 5562 5564 5567 5568 5568 5572 5577 5581 5585 5587 5590 5594 5600 5602 5606 5610 5612 5615 5618 5620 5622 5624 5626 5629 5631 5632 5633 5634 5634 5635 5634 5633 5633 5632 5631 5631
5563 5562 5561 5560 5559 5558 5558 5558 5559 5559 5560 5561 5562 5562 5564 5566 5567 5567 5569 5570 5571 5572 5575 5579 5582 5585 5589 5592 5595 5598 5601 5605 5608 5610 5613 5615 5617 5619 5621 5623 5625 5625 5626 5627 5628 5627 5625 5625 5625 5625 5625 5625 5625 5625
5575 5573 5571 5570 5569 5568 5568 5568 5569 5568 5568 5568 5569 5570 5570 5572 5573 5574 5576 5577 5578 5579 5581 5584 5587 5589 5592 5595 5598 5601 5604 5606 5609 5611 5613 5615 5617 5619 5620 5622 5623 5624 5624 5624 5624 5623 5622 5621 5621 5620 5620 5619 5619 5618
5585 5583 5581 5579 5578 5577 5577 5577 5576 5576 5575 5576 5576 5576 5577 5579 5580 5581 5582 5583 5584 5586 5588 5591 5592 5594 5596 5599 5601 5603 5605 5607 5609 5611 5613 5614 5615 5618 5620 5620 5619 5619 5619 5619 5618 5618 5617 5616 5615 5614 5614 5613 5613 5612
5594 5592 5589 5588 5586 5585 5585 5584 5583 5582 5582 5582 5583 5583 5584 5584 5585 5586 5587 5589 5591 5592 5594 5595 5596 5598 5600 5602 5604 5606 5607 5608 5610 5611 5612 5613 5615 5615 5615 5614 5614 5613 5613 5612 5612 5612 5611 5611 5611 5610 5609 5608 5607 5606
5602 5599 5597 5595 5594 5592 5592 5591 5590 5589 5589 5589 5588 5589 5590 5590 5591 5592 5593 5595 5596 5597 5598 5599 5600 5601 5602 5603 5605 5606 5608 5609 5610 5610 5610 5611 5612 5612 5611 5611 5610 5609 5608 5608 5607 5607 5607 5606 5605 5604 5603 5601 5599 5597
5614 5610 5608 5605 5602 5600 5600 5597 5597 5596 5596 5596 5595 5595 5595 5596 5596 5598 5599 5600 5600 5601 5601 5602 5603 5604 5605 5606 5607 5608 5608 5608 5608 5608 5608 5608 5609 5608 5607 5606 5605 5605 5604 5603 5602 5602 5601 5600 5597 5595 5592 5590 5589 5587
5626 5622 5618 5615 5613 5611 5609 5607 5606 5604 5603 5603 5603 5602 5602 5602 5603 5603 5604 5604 5605 5606 5606 5606 5607 5607 5608 5609 5609 5610 5609 5609 5608 5608 5607 5607 5606 5605 5604 5603 5601 5599 5598 5596 5595 5593 5591 5589 5587 5585 5583 5581 5579 5577
5636 5631 5627 5624 5622 5620 5618 5616 5615 5613 5612 5612 5611 5611 5610 5609 5609 5609 5610 5610 5610 5610 5610 5610 5611 5611 5611 5611 5610 5609 5608 5607 5606 5605 5604 5602 5601 5599 5598 5596 5594 5592 5589 5587 5585 5583 5581 5579 5577 5575 5573 5571 5568 5565
5639 5636 5633 5631 5630 5629 5626 5624 5623 5622 5621 5620 5619 5618 5618 5617 5616 5614 5615 5615 5615 5615 5615 5615 5614 5614 5613 5612 5611 5610 5608 5606 5605 5603 5601 5598 5596 5593 5591 5588 5585 5582 5580 5577 5575 5572 5570 5568 5565 5562 5559 5556 5553 5550
5645 5642 5640 5638 5636 5635 5633 5632 5630 5629 5628 5626 5625 5624 5624 5624 5622 5621 5620 5620 5620 5619 5618 5616 5615 5614 5613 5612 5611 5609 5607 5605 5603 5600 5597 5593 5590 5587 5583 5580 5577 5574 5570 5566 5563 5560 5558 5554 5551 5548 5544 5541 5537 5534
5652 5649 5646 5645 5643 5641 5640 5638 5637 5635 5634 5632 5630 5629 5629 5628 5628 5627 5625 5625 5624 5622 5621 5620 5618 5616 5614 5612 5610 5607 5604 5600 5597 5593 5590 5586 5582 5579 5575 5570 5566 5562 5558 5554 5550 5546 5542 5538 5534 5531 5527 5523 5519 5515
5656 5654 5653 5650 5648 5646 5645 5643 5641 5640 5638 5637 5635 5633 5632 5631 5630 5630 5629 5628 5626 5624 5621 5618 5615 5612 5610 5607 5603 5600 5596 5592 5589 5585 5581 5576 5572 5567 5563 5559 5555 5550 5545 5539 5534 5530 5525 5521 5516 5512 5507 5502 5498 5493
5659 5657 5655 5653 5652 5650 5648 5646 5644 5642 5640 5639 5637 5636 5635 5633 5632 5630 5628 5626 5623 5621 5618 5615 5611 5608 5605 5601 5597 5593 5589 5584 5580 5576 5571 5566 5560 5555 5551 5546 5540 5534 5529 5524 5518 5513 5508 5502 5496 5490 5484 5478 5473 5468
5660 5657 5657 5655 5654 5653 5651 5648 5646 5643 5641 5640 5638 5636 5633 5631 5629 5627 5625 5623 5619 5615 5613 5610 5606 5602 5598 5594 5590 5586 5581 5575 5569 5563 5557 5551 5546 5540 5535 5529 5523 5517 5511 5505 5499 5493 5487 5481 5475 5469 5463 5457 5451 5445
5663 5661 5659 5657 5656 5654 5651 5649 5647 5644 5642 5639 5634 5633 5634 5630 5625 5625 5623 5618 5615 5612 5608 5605 5601 5596 5590 5584 5578 5572 5567 5561 5556 5550 5544 5537 5531 5524 5518 5511 5504 5498 5491 5485 5478 5471 5465 5458 5451 5444 5438 5431 5425 5419
5665 5663 5660 5658 5656 5653 5651 5649 5646 5643 5641 5637 5635 5635 5633 5630 5627 5624 5621 5617 5613 5609 5603 5598 5592 5586 5580 5573 5567 5560 5553 5546 5540 5533 5526 5520 5513 5506 5499 5492 5485 5478 5471 5463 5456 5448 5440 5433 5426 5419 5413 5406 5400 5394
Wind_Speed
49 46 44 41 38 35 32 31 29 27 28 31 31 29 28 29 30 31 31 32 29 27 30 36 36 37 40 41 40 40 41 42 41 44 46 45 45 44 40 40 52 31 39 22 31 40 38 36 37 40 37 45 37 38
47 45 41 37 33 32 30 26 26 26 25 23 19 21 22 22 23 23 26 26 30 29 27 32 33 32 34 35 37 40 39 42 36 35 45 45 43 37 36 36 33 53 26 37 39 39 37 34 33 36 39 40 41 40
42 41 37 35 33 29 25 24 22 21 19 16 14 16 18 20 21 20 23 25 24 25 25 28 30 28 31 33 36 39 38 43 31 37 36 39 40 34 31 31 29 32 38 28 35 40 44 41 40 39 34 36 40 40
31 35 32 30 28 26 23 21 20 18 13 10 11 13 15 17 17 17 19 16 20 20 21 25 24 25 25 29 34 37 45 42 45 26 37 32 38 32 30 27 27 26 30 42 39 36 37 47 44 43 44 41 39 39
27 26 28 27 24 21 17 17 15 10 8 7 9 11 13 15 14 14 16 16 18 19 22 21 22 22 24 24 30 29 41 39 43 35 27 26 40 34 30 30 30 27 30 35 34 36 36 48 36 40 42 45 41 41
27 24 22 22 20 14 13 11 8 5 4 6 7 9 13 14 13 12 15 15 19 20 21 22 21 21 23 23 27 27 27 40 38 36 31 29 31 40 35 34 33 33 26 26 28 40 40 43 43 30 38 43 44 42
23 21 19 16 12 9 8 5 3 2 3 4 7 10 12 12 12 15 17 19 21 19 22 24 22 21 19 21 23 28 29 28 27 30 27 22 24 35 33 30 37 34 27 21 22 25 28 31 32 38 35 47 40 45
15 11 11 9 5 4 3 2 0 2 4 5 9 10 11 13 17 15 22 23 27 23 26 26 23 22 19 20 23 28 32 30 29 26 29 22 19 28 37 22 22 28 28 27 26 27 24 26 26 26 24 28 31 25
7 4 6 2 2 2 2 3 4 4 6 8 9 11 14 14 18 25 24 28 30 27 27 27 25 22 21 21 22 26 29 31 29 28 25 28 21 17 27 26 21 21 18 22 20 19 19 17 18 17 19 23 21 23
8 8 6 4 5 5 4 5 6 8 9 10 12 12 15 22 23 23 25 26 25 22 18 17 24 21 17 16 18 24 25 24 26 26 29 27 29 32 20 30 29 18 23 22 21 21 20 19 21 22 22 25 25 24
11 10 10 8 8 8 8 9 12 11 12 13 15 19 23 22 23 25 25 25 25 21 19 16 24 25 20 18 19 22 24 24 23 26 30 33 35 33 33 26 24 27 21 20 21 23 23 24 26 26 27 27 26 26
13 13 15 14 14 14 15 14 15 13 16 18 22 24 23 23 23 22 21 20 23 24 24 23 24 24 20 16 17 23 22 22 24 25 28 28 31 32 34 33 32 31 30 28 29 30 28 27 27 26 24 25 25 28
16 17 17 18 19 18 17 18 17 18 22 24 24 23 23 21 18 15 13 17 15 23 25 27 27 21 21 17 15 28 25 22 20 23 28 30 25 28 27 26 27 29 29 29 30 30 29 27 26 27 29 28 23 24
18 18 19 20 20 22 22 22 20 22 23 21 22 22 21 19 14 12 10 10 18 20 24 26 26 22 21 20 25 24 22 24 23 20 21 20 23 22 22 22 23 22 21 22 23 23 23 25 24 23 23 23 24 24
19 19 20 22 19 21 26 24 23 26 22 22 28 29 18 12 12 12 12 17 17 13 24 26 21 22 22 22 22 29 28 24 21 15 22 23 23 23 22 20 21 21 20 20 21 22 21 21 22 23 24 26 27 29
23 22 21 20 20 20 23 21 24 26 21 21 22 20 14 14 15 14 17 19 17 18 22 25 24 22 23 26 23 23 22 16 20 18 21 21 17 15 15 17 16 15 16 15 16 17 18 20 22 24 26 27 27 27
26 24 20 16 14 15 19 20 21 24 22 18 16 15 14 20 20 13 17 16 14 13 16 23 25 20 19 17 20 22 16 15 15 13 9 11 11 11 11 10 11 11 11 13 14 17 21 22 23 24 24 24 19 17
25 23 20 18 16 16 19 20 18 20 18 14 11 12 13 18 18 16 14 14 13 12 19 17 16 14 15 13 12 12 13 11 15 13 11 11 10 9 9 10 10 11 13 16 17 19 20 20 19 17 15 14 14 15
23 22 21 19 16 17 19 19 18 17 15 13 12 12 12 11 13 14 14 14 14 14 13 16 15 14 14 15 14 13 12 10 11 11 11 11 10 10 10 12 13 14 16 15 15 15 16 15 15 15 16 20 23 24
23 22 20 19 17 16 17 18 17 16 15 14 13 12 12 13 14 15 15 15 15 14 14 15 15 15 13 12 12 11 10 10 10 10 10 11 13 13 12 14 15 16 17 18 16 14 15 16 17 17 19 20 21 23
18 16 18 20 18 15 12 12 14 16 16 15 16 15 15 15 15 13 12 12 13 12 13 12 11 10 10 9 8 7 7 7 7 9 11 11 10 10 11 12 14 16 17 19 20 19 20 21 22 22 22 23 24 26
31 25 20 15 12 13 15 15 14 13 12 12 12 13 14 14 14 13 12 12 11 10 9 9 9 9 9 9 7 6 5 6 7 9 11 11 9 10 11 12 13 14 17 19 21 22 22 21 21 22 21 21 23 25
31 30 31 31 29 26 22 20 17 16 14 13 12 12 12 13 13 13 12 11 10 9 9 8 7 6 7 6 5 5 2 2 5 8 11 11 11 12 12 14 18 19 18 19 21 20 21 22 24 23 24 26 27 28
28 28 26 26 27 27 28 25 23 21 24 23 21 17 17 22 20 17 15 15 13 12 11 10 10 8 7 5 4 5 7 5 5 7 8 10 12 15 18 20 20 21 22 23 24 25 25 27 28 29 31 33 34 35
20 24 23 23 25 23 21 22 21 18 21 27 20 23 26 19 15 16 18 18 14 11 8 7 5 2 3 3 5 6 7 8 7 8 10 12 14 16 18 20 22 24 26 26 27 28 29 30 32 33 34 34 35 36
20 22 21 20 21 20 20 22 22 20 18 16 16 17 15 16 16 18 16 14 13 12 11 10 8 7 7 6 7 9 10 11 12 13 15 17 18 20 21 23 25 26 27 28 29 31 32 33 34 36 38 39 41 43
22 24 23 23 23 22 21 21 21 20 19 20 20 19 15 13 15 17 17 16 14 13 13 13 12 11 10 9 10 11 12 13 14 16 18 21 23 24 25 27 28 29 32 34 36 37 39 40 42 44 46 47 48 48
18 17 18 18 18 19 19 19 18 17 16 16 17 17 15 14 14 12 11 10 10 11 11 10 9 11 12 15 17 18 19 19 20 21 23 24 25 27 30 32 33 35 36 38 39 41 43 44 46 47 48 50 51 52
19 16 13 13 13 13 13 14 15 14 13 11 11 11 10 11 11 11 10 8 8 9 11 12 13 16 20 25 27 29 30 31 32 32 33 34 36 37 39 39 40 42 43 45 47 49 50 51 52 53 54 55 57 58
19 17 11 11 13 13 14 14 14 15 12 10 9 10 10 12 13 12 16 16 17 19 22 20 18 19 27 30 33 35 37 38 38 38 40 41 42 43 44 45 46 47 49 50 51 52 54 56 57 59 61 62 64 65
19 14 8 10 9 11 12 14 12 12 13 15 15 15 12 18 24 29 23 24 20 25 27 26 27 31 34 41 43 41 40 41 42 43 45 45 46 47 47 48 49 51 52 53 54 56 57 58 59 61 62 63 65 66
17 16 17 13 13 14 14 14 13 13 14 17 28 13 17 20 18 23 25 32 25 25 32 35 38 44 46 46 46 46 46 46 45 45 45 45 46 47 48 50 51 53 54 56 57 59 60 61 62 63 64 64 65 66
16 16 13 15 17 17 16 15 16 17 17 21 18 14 12 12 23 18 19 29 31 34 36 38 41 44 46 47 47 47 47 47 47 48 49 51 52 53 54 55 56 56 56 57 58 58 59 59 59 59 58 58 57 57
Wind_Direction
311 311 311 308 305 303 300 298 295 291 286 280 270 264 255 249 248 246 247 238 232 225 219 221 217 226 223 219 218 212 210 209 216 220 220 223 230 234 239 235 233 199 208 208 209 217 219 220 221 226 237 225 225 233
315 308 307 307 305 307 303 297 297 296 296 291 273 259 245 237 236 235 234 228 223 216 225 220 212 218 219 210 211 209 209 203 208 215 218 222 227 233 239 247 242 232 217 201 206 213 218 220 222 227 226 240 232 231
316 312 306 305 306 308 301 300 300 301 295 291 267 243 227 225 226 227 225 221 223 215 219 214 209 210 214 202 204 203 203 205 207 218 213 219 225 226 228 233 247 252 242 190 195 205 212 216 215 212 224 237 240 229
311 311 312 306 304 307 305 299 299 299 295 272 256 232 218 214 216 218 218 211 208 205 206 205 200 199 205 203 204 203 208 200 210 201 213 225 229 219 222 226 227 233 240 234 203 203 202 212 219 225 225 223 222 227
299 307 311 311 307 306 308 303 307 308 286 257 234 215 199 199 205 208 199 208 183 186 193 194 192 189 192 196 201 198 209 212 208 219 212 229 217 212 215 222 226 229 237 250 238 223 226 214 200 217 220 221 227 233
284 294 306 311 308 302 310 311 314 297 274 230 199 187 190 195 199 198 186 179 164 175 180 180 179 178 185 193 199 192 199 211 213 220 215 216 217 219 223 232 236 233 232 229 232 240 252 257 246 228 213 227 226 235
296 285 302 309 300 299 315 325 293 247 201 179 174 175 181 188 191 170 180 162 160 155 163 165 163 172 180 186 187 188 187 191 210 220 218 223 221 209 217 211 212 211 214 208 207 221 233 230 246 259 255 247 256 238
318 306 303 310 289 312 333 9 67 151 156 150 152 155 159 165 161 168 158 157 150 144 152 154 157 159 169 177 175 182 189 195 204 210 215 190 160 196 211 212 185 195 202 202 202 207 209 213 223 233 233 240 237 226
2 10 349 346 343 344 40 84 117 131 136 128 129 129 137 150 153 149 152 157 162 159 154 158 162 153 144 152 168 177 184 191 197 199 202 209 171 159 194 203 194 187 190 195 204 212 222 248 250 244 254 272 280 276
46 35 45 56 64 70 78 106 112 117 111 113 124 135 132 139 138 146 150 157 167 161 160 169 179 167 162 160 162 172 179 191 195 200 210 215 197 191 180 181 184 212 212 208 214 230 244 247 252 257 262 267 271 272
53 50 53 60 64 83 90 99 107 103 109 119 124 124 130 133 140 144 149 158 161 167 179 173 174 177 176 176 167 182 188 196 202 202 202 199 198 206 206 208 180 184 205 225 233 240 248 255 260 261 264 268 272 272
48 49 48 74 81 89 98 104 109 104 118 116 119 122 128 134 142 153 155 158 166 173 171 147 156 165 168 163 171 176 182 192 196 194 193 198 206 209 215 219 226 234 237 242 248 254 256 259 262 266 268 273 275 276
56 52 69 78 84 88 91 102 103 114 115 115 119 123 125 133 135 145 159 165 165 171 166 148 151 154 169 174 189 182 180 177 181 190 198 202 196 204 214 221 227 233 238 243 250 256 260 266 273 277 282 282 273 273
54 64 83 88 96 85 75 89 100 112 110 112 113 109 110 111 118 125 131 127 157 163 160 158 163 151 168 176 167 167 191 174 177 189 178 191 193 193 197 203 210 220 232 242 249 257 265 268 268 269 267 269 271 276
68 82 88 97 91 81 80 90 98 100 98 109 111 93 85 113 106 103 123 129 143 148 164 167 160 156 162 182 162 170 171 176 187 196 200 194 189 197 201 196 216 225 239 247 253 255 254 256 261 267 273 278 282 284
77 81 93 105 91 79 74 82 101 95 99 114 111 123 121 121 131 72 113 135 153 164 159 173 173 163 169 178 173 163 162 170 190 194 194 185 167 175 185 199 206 213 225 245 255 259 265 272 279 282 284 286 291 293
82 80 88 103 87 78 77 91 110 107 108 110 99 89 98 110 125 114 115 124 144 158 162 171 179 168 167 178 182 183 183 170 169 179 185 206 193 211 220 230 240 248 256 263 275 284 285 287 290 292 292 294 291 287
74 75 78 86 85 76 76 84 105 109 118 118 109 107 105 104 124 114 108 100 110 117 135 137 148 149 165 171 153 161 175 189 203 206 207 201 198 206 216 232 244 260 272 285 290 297 300 298 291 285 282 285 290 284
67 75 78 81 85 81 88 88 76 86 103 110 103 106 102 99 101 103 97 100 103 103 114 135 139 139 140 156 168 171 177 176 180 184 188 197 210 223 239 257 266 272 268 277 280 288 294 289 288 282 275 277 276 276
67 70 68 69 76 83 83 77 68 71 80 85 80 81 81 83 89 98 102 105 110 110 113 117 123 130 138 146 155 168 178 190 201 205 213 224 233 239 251 261 268 271 268 269 272 269 267 270 271 274 276 277 278 278
54 56 63 74 82 86 80 76 78 87 90 87 88 89 88 90 95 103 106 105 104 101 101 104 107 108 110 118 124 145 161 184 204 220 233 245 256 270 277 276 276 273 272 269 267 261 265 268 274 278 283 287 286 283
60 61 66 70 80 85 84 81 83 88 90 87 83 84 85 87 90 95 100 99 101 103 107 113 112 108 121 131 133 143 172 207 228 243 248 258 262 264 260 271 271 268 264 263 265 268 272 279 282 285 285 284 283 280
63 66 67 71 72 73 77 81 83 84 85 88 92 94 89 88 89 92 97 93 87 93 104 102 87 89 99 99 93 93 123 234 263 260 258 252 252 250 264 274 275 273 274 276 276 276 278 281 286 282 282 283 281 280
50 57 61 66 67 69 76 80 81 80 84 85 85 88 101 98 91 89 87 86 85 91 89 87 74 78 77 84 80 4 338 319 311 309 295 281 272 271 277 279 279 279 280 280 280 280 278 280 280 279 281 285 286 286
32 47 52 61 66 69 76 78 76 85 92 93 74 63 68 80 91 84 80 81 87 82 74 64 58 10 48 34 9 345 333 331 319 307 301 297 292 287 286 288 288 287 285 286 286 285 284 283 280 280 281 281 280 279
43 55 59 67 67 69 71 74 78 82 81 75 74 74 75 75 87 85 82 78 84 84 74 69 69 56 42 20 358 343 335 332 329 324 315 308 303 299 297 294 291 290 289 288 286 286 286 286 285 284 284 284 284 285
52 56 59 63 66 66 67 69 71 73 73 74 72 72 74 69 69 75 78 75 72 67 60 49 38 25 10 352 338 330 327 324 319 315 312 311 310 308 305 301 299 297 293 291 290 289 288 287 286 286 285 285 285 285
51 59 62 58 60 63 63 62 63 63 62 65 69 67 66 65 63 63 62 59 54 46 36 27 13 1 352 351 350 345 339 333 328 323 318 315 312 310 307 305 304 303 301 299 297 294 293 292 291 291 291 290 290 289
41 42 54 60 62 64 62 57 48 46 49 48 53 62 55 43 28 19 12 4 359 1 359 353 348 347 348 344 341 339 336 331 327 323 319 316 313 310 307 306 303 301 300 298 297 297 297 296 295 294 294 293 292 291
32 23 33 31 22 22 26 21 16 6 4 6 21 20 16 5 347 339 347 339 337 349 349 339 333 337 337 337 334 329 326 322 318 314 310 307 305 303 302 302 301 300 300 299 297 297 296 295 294 294 293 292 292 292
8 12 38 27 12 358 3 0 352 335 335 353 356 349 357 349 357 336 317 323 324 338 334 325 322 323 325 325 323 319 315 313 310 308 307 306 305 305 304 303 302 301 300 299 298 297 296 295 294 293 293 292 291 290
17 21 13 7 3 356 354 359 349 341 333 333 340 306 359 351 330 346 326 310 305 301 308 315 312 313 315 314 314 315 315 313 311 310 311 310 309 308 308 307 306 305 304 303 302 300 299 297 296 295 294 293 292 291
16 11 3 0 359 355 357 354 349 345 341 345 333 304 289 330 318 305 308 329 325 318 313 310 310 312 313 315 315 314 314 315 316 316 315 315 314 312 311 309 308 308 307 306 304 302 301 301 300 300 299 299 298 297